Clayton Lake, ME

3:50 AM EDT on June 25, 2017 (GMT -0400)
Clayton Lake

Weather History for K40B - October, 2012

Change the Weather History Date:

Friday, October 19, 2012

  Actual Average Record
Temperature  
Mean Temperature 46 °F -  
Max Temperature 57 °F 46 °F 62 °F (1998)
Min Temperature 37 °F 29 °F 18 °F (2015)
Degree Days  
Heating Degree Days 18    
Moisture  
Dew Point 45 °F    
Average Humidity 79    
Maximum Humidity 100    
Minimum Humidity 64    
Precipitation  
Precipitation 0.28 in - - ()
Sea Level Pressure  
Sea Level Pressure 30.08 in    
Wind  
Wind Speed 5 mph (ESE)    
Max Wind Speed 10 mph    
Max Gust Speed 23 mph    
Averages and records for this station are not official NWS values.
T = Trace of Precipitation, MM = Missing Value Source: NWS Daily Summary

Daily Weather History Graph

Daily Weather History Graph

Search for Another Location

Airport or City:

Trip Planner

Search our weather history database for the weather conditions in past years. The results will help you decide how hot, cold, wet, or windy it might be!

Date:

Astronomy

Oct. 19, 2012 Rise Set
Actual Time 7:01 AM EDT 5:43 PM EDT
Civil Twilight 6:31 AM EDT 6:13 PM EDT
Nautical Twilight 5:56 AM EDT 6:49 PM EDT
Astronomical Twilight 5:21 AM EDT 7:23 PM EDT
Moon 11:54 AM EDT (10/19) 9:05 PM EDT (10/19)
Length of Visible Light 11h 42m
Length of Day
10h 41m
Waxing Crescent, 23% of the Moon is Illuminated
Oct 19
Waxing Crescent
Oct 21
First Quarter
Oct 29
Full
Nov 6
Last Quarter
Nov 13
New

Hourly Weather History & Observations

Time (EDT) Temp. Windchill Dew Point Humidity Pressure Visibility Wind Dir Wind Speed Gust Speed Precip Events Conditions
12:25 AM 47.7 °F - 36.1 °F 64% 30.11 in - SSE 8.1 mph 16.1 mph N/A   Unknown
1:25 AM 46.4 °F 43.5 °F 37.4 °F 71% 30.11 in - Variable 5.8 mph - 0.01 in   Unknown
2:25 AM 44.8 °F - 39.6 °F 82% 30.10 in - Calm Calm - 0.03 in   Unknown
3:25 AM 42.4 °F - 43.5 °F 100% 30.11 in - Calm Calm - 0.00 in   Unknown
4:25 AM 40.5 °F 38.4 °F - N/A% 30.11 in - Variable 3.5 mph - 0.01 in   Unknown
5:25 AM 37.4 °F - - N/A% 30.14 in - Calm Calm - N/A   Unknown
6:25 AM 40.6 °F - - N/A% 30.14 in - Calm Calm - N/A   Unknown
7:25 AM 40.5 °F - - N/A% 30.14 in - Calm Calm - N/A   Unknown
8:25 AM 44.8 °F - - N/A% 30.16 in - Calm Calm - N/A   Unknown
9:25 AM 48.7 °F - 43.2 °F 81% 30.15 in - Variable 5.8 mph 13.8 mph 0.15 in   Unknown
10:25 AM 49.6 °F - 43.9 °F 81% 30.16 in - SSE 10.4 mph 23.0 mph 0.00 in   Unknown
11:25 AM 53.2 °F - 45.0 °F 73% 30.12 in - Variable 4.6 mph - N/A   Unknown
12:25 PM 54.3 °F - 45.9 °F 73% 30.12 in - SSE 8.1 mph 16.1 mph N/A   Unknown
1:29 PM 56.3 °F - 46.6 °F 70% 30.10 in - Variable 5.8 mph 16.1 mph N/A   Unknown
2:25 PM 55.8 °F - 48.0 °F 75% 30.09 in - ESE 8.1 mph 15.0 mph N/A   Unknown
3:25 PM 56.1 °F - 47.8 °F 74% 30.09 in - SE 9.2 mph 20.7 mph N/A   Unknown
4:25 PM 55.8 °F - 48.4 °F 76% 30.06 in - Variable 3.5 mph - N/A   Unknown
5:28 PM 54.9 °F - 48.6 °F 79% 30.04 in - Variable 6.9 mph 12.7 mph N/A   Unknown
6:25 PM 53.8 °F - 48.4 °F 82% 30.04 in - East 6.9 mph - N/A   Unknown
7:25 PM - - - N/A% 30.01 in - Variable 6.9 mph - 0.01 in   Unknown
8:25 PM 51.1 °F - 52.0 °F 100% 29.99 in - ENE 9.2 mph 13.8 mph 0.05 in   Unknown
9:25 PM 50.7 °F - - N/A% 29.95 in - East 9.2 mph - 0.01 in   Unknown
10:25 PM 51.8 °F - - N/A% 29.91 in - East 9.2 mph 16.1 mph 0.01 in   Unknown
11:25 PM 52.3 °F - - N/A% 29.86 in - East 10.4 mph 17.3 mph N/A   Unknown